TimeMDT,TemperatureF,Dew PointF,Humidity,Sea Level PressureIn,VisibilityMPH,Wind Direction,Wind SpeedMPH,Gust SpeedMPH,PrecipitationIn,Events,Conditions,WindDirDegrees,DateUTC
12:53 AM,54.0,19.0,25,29.55,10.0,WSW,18.4,-,N/A,,Clear,250,2012-10-21 06:53:00
1:53 AM,50.0,21.0,32,29.57,10.0,West,18.4,-,N/A,,Clear,260,2012-10-21 07:53:00
2:53 AM,50.0,23.0,35,29.59,10.0,West,19.6,-,N/A,,Clear,270,2012-10-21 08:53:00
3:53 AM,48.0,23.0,37,29.60,10.0,West,13.8,-,N/A,,Clear,270,2012-10-21 09:53:00
4:53 AM,48.0,23.0,37,29.63,10.0,West,13.8,-,N/A,,Clear,280,2012-10-21 10:53:00
5:53 AM,45.0,23.0,42,29.68,10.0,West,11.5,-,N/A,,Clear,260,2012-10-21 11:53:00
6:53 AM,46.0,23.0,40,29.69,10.0,West,11.5,-,N/A,,Clear,260,2012-10-21 12:53:00
7:53 AM,52.0,21.9,31,29.72,10.0,NW,11.5,-,N/A,,Clear,320,2012-10-21 13:53:00
8:53 AM,54.0,26.1,34,29.75,10.0,North,15.0,-,N/A,,Clear,360,2012-10-21 14:53:00
9:53 AM,54.0,30.9,41,29.76,10.0,North,16.1,24.2,N/A,,Clear,10,2012-10-21 15:53:00
10:53 AM,57.0,34.0,42,29.78,10.0,North,12.7,-,N/A,,Clear,10,2012-10-21 16:53:00
11:53 AM,61.0,35.1,38,29.78,10.0,North,11.5,19.6,N/A,,Clear,10,2012-10-21 17:53:00
12:53 PM,64.0,36.0,35,29.75,10.0,NE,12.7,-,N/A,,Clear,50,2012-10-21 18:53:00
1:53 PM,66.0,36.0,33,29.73,10.0,NNE,13.8,-,N/A,,Clear,30,2012-10-21 19:53:00
2:53 PM,66.9,36.0,32,29.71,10.0,NE,16.1,-,N/A,,Clear,40,2012-10-21 20:53:00
3:53 PM,66.0,36.0,33,29.73,10.0,ENE,15.0,-,N/A,,Clear,60,2012-10-21 21:53:00
4:53 PM,64.9,36.0,34,29.73,10.0,ENE,15.0,-,N/A,,Clear,70,2012-10-21 22:53:00
5:53 PM,57.9,36.0,44,29.77,10.0,ENE,10.4,-,N/A,,Clear,70,2012-10-21 23:53:00
6:53 PM,50.0,35.1,57,29.81,10.0,East,9.2,-,N/A,,Clear,90,2012-10-22 00:53:00
7:53 PM,48.0,35.1,61,29.82,10.0,East,9.2,-,N/A,,Clear,80,2012-10-22 01:53:00
8:53 PM,46.9,35.1,63,29.83,10.0,East,10.4,-,N/A,,Clear,80,2012-10-22 02:53:00
9:53 PM,46.0,35.1,66,29.85,10.0,ENE,8.1,-,N/A,,Clear,70,2012-10-22 03:53:00
10:53 PM,39.9,33.1,77,29.87,10.0,North,6.9,-,N/A,,Clear,10,2012-10-22 04:53:00
11:53 PM,39.0,33.1,79,29.88,10.0,NNE,8.1,-,N/A,,Clear,30,2012-10-22 05:53:00